www.pogodaiklimat.ru

Погода и климат >> Архив погоды >> Россия >> Свердловская область >> Карпинск


ПОГОДА в Карпинске

  • Прогноз погоды в Карпинске
  • Монитор погоды в Карпинске

АРХИВ ПОГОДЫ в Карпинске

Время (UTC), дата Ветер
(напр.,м/с)
 
Видим.   Явления Облачность Т
(С)
Тd
(С)
f
(%)
Тe
(С)
Тes
(С)
Комфортность P
(гПа)
Po
(гПа)
Тmin
(С)
Tmax
(С)
R
(мм)
R24
(мм)
S
(см)
09 13.04 СЗ 5-10
{11}
50 км 1/1 600 м
[Sc]
+4.4 -13.6 26 +1 +5 1019.2 990.3
12 13.04 С 5
{10}
50 км 1/1 600 м
[Sc]
+4.2 -14.7 24 0 +2 1020.5 991.4
15 13.04 СВ 2 50 км ясно +0.7 -15.8 28 -2 -2 1022.7 993.3 +5.0
18 13.04 С 2 10 км ясно -2.5 -15.7 35 -6 -6 1025.2 995.3
21 13.04 СВ 1 10 км ясно -4.2 -16.3 38 -6 -6 1027.1 996.9
00 14.04 СВ 2 10 км ясно -6.1 -15.5 47 -10 -10 1028.4 998.0
03 14.04 В 1 50 км 3/0
[Ci fib]
-5.8 -15.2 47 -8 -6 1030.0 999.5 -6.9
06 14.04 В 1 50 км 1/0
[Ci fib]
-2.1 -17.2 30 -3 +6 1030.0 1000.0
09 14.04 З 2 50 км 1/0
[Ci fib]
+0.3 -17.3 25 -2 +7 1029.5 999.8
12 14.04 ЮЗ 1 50 км ясно +2.1 -18.0 21 +2 +6 1027.8 998.3
15 14.04 Ю 1 50 км ясно -0.2 -18.0 25 -1 -1 1026.4 996.7 +2.5
18 14.04 ЮЗ 1 10 км ясно -3.1 -17.4 32 -4 -4 1025.4 995.4
21 14.04 ЮЗ 1 10 км ясно -4.9 -17.0 38 -6 -6 1024.0 993.8
00 15.04 ЮЗ 1 10 км 3/0
[Ac trans]
-5.1 -15.8 43 -7 -7 1022.2 992.1
03 15.04 З 1 50 км 8/4 600 м
[Sc Ac trans Ci fib]
-2.0 -13.9 40 -3 -2 1019.0 989.3 -5.4
06 15.04 З 3
{10}
50 км 9/3 600 м
[Sc Ac trans]
+2.2 -14.7 27 -1 +1 1016.0 986.8
09 15.04 З 3 50 км 9/4 600 м
[Sc Ac trans]
+4.0 -12.8 28 +1 +4 1012.5 983.6
12 15.04 З 7-14
{14}
50 км 9/5 300 м
[Cb cap Ac trans]
+3.8 -7.0 45 -1 -1 1011.2 982.3
15 15.04 З 3
{14}
50 км 8/4 600 м
[Sc Ac trans Ci fib]
+1.5 -4.3 65 -2 -2 1009.5 980.5 +4.4
18 15.04 З 3 10 км 8/5 600 м
[Sc Ac trans Ci fib]
+1.0 -3.6 71 -3 -3 1008.2 979.2
21 15.04 З 3 10 км 8/4 600 м
[Sc Ac trans]
+1.2 -2.9 74 -3 -3 1005.7 976.8
00 16.04 С 1
{10}
10 км {ливн. осадки} 9/6 300 м
[Cb cap Ac trans]
-1.0 -3.3 84 -3 -3 1006.7 977.5
03 16.04 СЗ 4 20 км {ливн. осадки} 9/6 300 м
[Cb cap Ac trans]
-1.6 -9.9 53 -7 -6 1006.0 976.8 -1.6 0.0 1
06 16.04 СЗ 4
{11}
50 км {ливн. осадки} 8/3 300 м
[Cb cap Ac trans Ci fib]
-0.9 -14.2 36 -6 -3 1006.0 976.8 -1.8
09 16.04 С 4-10
{11}
50 км 9/8 300 м
[Cb cap Ci fib]
-0.1 -15.7 30 -4 -3 1007.3 978.2
12 16.04 С 5-11
{15}
20 км 10/10 300 м
[Cb cap]
-4.5 -15.2 43 -11 -11 1011.8 982.1
15 16.04 С 4-12
{13}
20 км 4/4 300 м
[Cb cap]
-7.1 -14.8 54 -13 -13 1016.0 985.8 +0.3
18 16.04 СВ 4-12
{15}
10 км {ливн. осадки} 9/6 300 м
[Cb cap Ac trans]
-9.2 -15.1 62 -16 -16 1020.0 989.5
21 16.04 СВ 3
{12}
4000 м слаб. ливневой снег 10/10 300 м
[Cb cap]
-10.2 -13.4 77 -16 -16 1021.7 991.0
00 17.04 С 3
{13}
10 км {ливн. осадки} 9/4 300 м
[Cb cap Ac trans Ci fib]
-11.6 -17.7 61 -18 -18 1024.2 993.4
03 17.04 С 4-11
{12}
20 км ясно -11.6 -19.2 53 -19 -17 1026.2 995.3 -12.4 2 5
06 17.04 С 4-10
{12}
20 км 3/3 600 м
[Cu hum]
-7.7 -18.6 41 -14 -10 1027.8 997.2
09 17.04 С 3
{10}
50 км 1/1 600 м
[Sc]
-3.0 -17.3 32 -7 -0 1027.4 997.3
12 17.04 С 3 50 км 6/0
[Ac trans Ci sp]
-0.7 -18.1 25 -4 -2 1027.1 997.3
15 17.04 СЗ 3 50 км 6/0
[Ac trans Ci sp]
-2.1 -18.0 28 -6 -6 1026.9 996.9 -0.4
18 17.04 СЗ 3 10 км 3/0
[Ac trans Ci fib]
-4.5 -18.0 34 -9 -9 1027.1 996.9
21 17.04 З 1 10 км 3/0
[Ci fib]
-6.4 -18.2 39 -8 -8 1027.1 996.7
00 18.04 З 1 10 км 4/0
[Ac lent Ci fib]
-7.5 -17.8 43 -9 -9 1026.4 996.0
03 18.04 З 3 50 км 3/0
[Ac lent Ci fib]
-4.0 -17.8 33 -8 -7 1026.0 995.9 -7.6
06 18.04 СЗ 5-10
{11}
50 км 3/0
[Ac lent]
+1.3 -16.2 26 -3 0 1025.7 996.3
09 18.04 СЗ 4
{10}
50 км 1/1 600 м
[Cu hum]
+3.8 -14.3 25 +1 +6 1025.0 995.8
12 18.04 СЗ 5
{10}
50 км 3/3 600 м
[Cu hum]
+4.5 -14.0 25 +1 +2 1024.8 995.7
15 18.04 СЗ 3 50 км 3/1 600 м
[Cu med, cong Ac lent]
+2.8 -13.7 28 -0 -0 1024.8 995.5 +4.8
18 18.04 З 1 10 км ясно -1.4 -14.2 37 -3 -3 1024.9 995.1
21 18.04 З 2 10 км ясно -1.9 -12.9 43 -5 -5 1024.5 994.6
00 19.04 З 2 10 км 3/0
[Ac trans]
-3.1 -10.7 56 -7 -7 1024.3 994.3
03 19.04 З 2 20 км 9/8 600 м
[Sc Ac lent]
+0.2 -6.8 59 -3 -3 1023.0 993.5 -3.3
06 19.04 З 2 50 км 9/8 600 м
[Sc Ac lent]
+3.6 -5.7 51 +1 +2 1021.6 992.5
09 19.04 СЗ 5
{10}
50 км 9/8 600 м
[Sc Ac trans]
+4.6 -6.9 43 +1 +1 1020.5 991.5
12 19.04 СЗ 5
{10}
50 км 9/6 600 м
[Sc Ac trans]
+3.8 -6.6 47 -1 0 1020.5 991.4
15 19.04 СЗ 4 50 км 9/8 600 м
[Sc Ac trans]
+3.2 -5.5 53 -1 -1 1019.3 990.3 +5.0
18 19.04 СЗ 3 10 км 9/5 600 м
[Sc Ac trans]
+2.1 -4.4 62 -2 -2 1020.2 991.0
21 19.04 СЗ 2 10 км 8/4 600 м
[Sc Ac trans]
+0.8 -4.3 69 -2 -2 1020.0 990.6
00 20.04 СЗ 2 10 км 9/5 600 м
[Sc Ac trans]
+0.5 -4.3 70 -3 -3 1020.0 990.6
03 20.04 З 2 20 км 9/9 600 м
[Sc]
+1.7 -3.5 68 -1 -1 1020.1 990.8 +0.3

 

Местоположение метеостанции Карпинск (Свердловская область, Россия): широта 59.75 долгота 60.00 высота над уровнем моря 235 м.

В архиве по умолчанию представлена погода в Карпинске за последнюю неделю. Архивные данные за месяц целиком и за предыдущие месяцы, начиная с января 2011 года, Вы можете получить, выбрав интересующий диапазон дат из раскрывающегося списка и нажав кнопку "Ввод!".


*Определитесь, кто Вы:
робот инопланетянин человек

Внимание! Время в таблицах - всемирное. Для получения местного времени необходимо прибавить поправку, которая равна 5 ч.

Смотрите также архив погоды в соседних городах и на ближайших метеорологических станциях:

Погода в Серове (Свердловская область, Россия) (34 км)
Погода в Кытлыме (Свердловская область, Россия) (52 км)
Погода в Североуральске (Свердловская область, Россия) (53 км)
Погода в Ивделе (Свердловская область, Россия) (106 км)
Погода в Верхотурье (Свердловская область, Россия) (107 км)
Погода в Качканаре (Свердловская область, Россия) (122 км)
Погода в Гарях (Свердловская область, Россия) (136 км)
Погода в Бисере (Пермский край, Россия) (152 км)
Погода в Кушве (Свердловская область, Россия) (160 км)
Погода в Губахе (Пермский край, Россия) (170 км)

Пояснения к столбцам:

Ветер - указаны скорость ветра в м/с - средняя за 10 мин, порывы в срок и между сроками (в фигурных скобках) и направление, откуда дует ветер: С - северный, СВ - северо-восточный, В - восточный, ЮВ - юго-восточный, Ю - южный, ЮЗ - юго-западный, З - западный, СЗ - северо-западный.
Видимость - горизонтальная дальность видимости в метрах или километрах. При видимости от 1 до 10 км при отсутствии осадков обычно наблюдается дымка, при ухудшении видимости до 1 км и менее - туман. В сухую погоду видимость может ухудшаться дымом, пылью или мглою.
Явления - указаны атмосферные явления, наблюдавшиеся в срок или в последний час перед сроком; фигурными скобками обозначены явления, наблюдавшиеся между сроками (за 1-3 часа до срока); квадратными скобками обозначены град или гололедные отложения с указанием их диаметра в мм.
Облачность - указаны через наклонную черту общая и нижняя облачность в баллах и высота нижней границы облаков в метрах; квадратными скобками обозначены формы облаков: Ci - перистые, Cs - перисто-слоистые, Cc - перисто-кучевые, Ac - высококучевые, As - высокослоистые, Sc - слоисто-кучевые, Ns - слоисто-дождевые, Cu - кучевые, Cb - кучево-дождевые. Подробнее классификацию облаков см. в Атласе облаков (PDF).
T - Температура воздуха - температура, измеренная на высоте 2 м над землей.
Td - Температура точки росы - температура, при понижении до которой содержащийся в воздухе водяной пар достигнет насыщения.
f - Относительная влажность воздуха - влажноcть воздуха, измеренная на высоте 2 м над землей.
Te - Эффективная температура - температура, которую ощущает одетый по сезону человек в тени. Характеристика душности погоды. При расчете учитывается влияние влажности воздуха и скорости ветра на теплоощущения человека.
Tes - Эффективная температура на солнце - температура, которую ощущает человек, с поправкой на солнечный нагрев. Характеристика знойности погоды. Зависит от высоты солнца над горизонтом, облачности и скорости ветра. Ночью, в пасмурную погоду, а также при ветре 12 м/с и более поправка равна нулю.
P - Атмосферное давление - приведенное к уровню моря атмосферное давление.
Po - Атмосферное давление - измеренное на уровне метеостанции атмосферное давление.
Tmin - Минимальная температура - минимум температуры воздуха на высоте 2 м над землей.
Tmax - Максимальная температура - максимум температуры воздуха на высоте 2 м над землей.
R - Количество осадков - Количество выпавших осадков за период времени, мм. При наведении курсора мыши на число - период времени, за который выпало указанное количество осадков.
R24 - Количество осадков - Количество выпавших осадков за 24 часа, мм.
S - Снежный покров - Высота снежного покрова, см. При наведении курсора мыши на число - состояние снежного покрова и степень покрытия местности в баллах.